Location: Mahannah Oil Field
(37.4664°N, 96.6003°W)
Time: 02:08:23
(UTC+00:00)

A-11 Canister half - Pass Details

Date: 29 January 2021
Orbit: 1524 x 1684 km, 47.3° (Epoch: 25 February)

Event Time Altitude Azimuth Distance (km) Brightness Sun altitude
Rises 22:38:57 0° 285° (WNW) 4,686 12.2 11.3°
Reaches altitude 10° 22:42:10 10° 292° (WNW) 3,715 11.6 10.7°
Maximum altitude 22:51:09 47° 4° (N) 1,988 9.5 9.2°
Drops below altitude 10° 23:00:24 10° 77° (ENE) 3,822 10.5 7.6°
Sets 23:03:46 0° 83° (E) 4,831 11.0 7.0°
